DW5444 Weather Reports


time (UTC)temp
F
wind
direction
speed
knots
gust
knots
rain 1hr
in
rain 24hr
in
rain mn
in
humidity
%
barometer
mb
20260506184506 69 266 8.7 15.6 0.00 0.00 0.00 50 1013.7
20260506183005 68 270 11.3 15.6 0.00 0.00 0.00 51 1013.7
20260506181557 66 241 7.8 13.0 0.00 0.00 0.00 58 1013.8
20260506180057 66 284 8.7 13.0 0.00 0.00 0.00 60 1014.0
20260506174555 66 281 8.7 15.6 0.00 0.00 0.00 62 1013.9
20260506173108 66 270 9.6 13.9 0.00 0.00 0.00 57 1013.7
20260506171557 65 269 7.0 12.2 0.00 0.00 0.00 62 1013.9
20260506170100 65 254 7.8 12.2 0.00 0.00 0.00 60 1013.8
20260506164609 65 246 7.8 11.3 0.00 0.00 0.00 59 1013.7
20260506163047 64 263 4.3 9.6 0.00 0.00 0.00 63 1013.6
20260506161548 64 261 6.1 11.3 0.00 0.00 0.00 61 1013.8
20260506160050 63 267 7.0 10.4 0.00 0.00 0.00 59 1013.8
20260506154550 62 223 4.3 9.6 0.00 0.00 0.00 64 1013.8
20260506153039 61 241 4.3 8.7 0.00 0.00 0.00 67 1014.0
20260506151539 61 236 6.1 8.7 0.00 0.00 0.00 61 1014.0
20260506150037 61 249 5.2 9.6 0.00 0.00 0.00 61 1014.0
20260506144533 61 244 4.3 9.6 0.00 0.00 0.00 62 1013.9
20260506143035 60 253 3.5 7.0 0.00 0.00 0.00 62 1013.8
20260506141528 60 238 3.5 5.2 0.00 0.00 0.00 61 1013.7
20260506140027 60 244 4.3 7.0 0.00 0.00 0.00 60 1013.6
20260506134523 59 213 2.6 5.2 0.00 0.00 0.00 61 1013.4
20260506133019 58 218 1.7 4.3 0.00 0.00 0.00 63 1013.2
20260506131518 55 157 1.7 3.5 0.00 0.00 0.00 68 1013.1
20260506130017 55 160 1.7 3.5 0.00 0.00 0.00 67 1013.0
20260506124514 55 114 1.7 3.5 0.00 0.00 0.00 66 1012.9
20260506123016 55 180 2.6 7.0 0.00 0.00 0.00 66 1012.8
20260506121515 55 164 1.7 4.3 0.00 0.00 0.00 66 1012.7
20260506120010 55 174 2.6 5.2 0.00 0.00 0.00 65 1012.6
20260506114510 55 204 1.7 4.3 0.00 0.00 0.00 64 1012.5
20260506113009 57 180 2.6 6.1 0.00 0.00 0.00 63 1012.4
20260506111505 57 223 3.5 7.0 0.00 0.00 0.00 62 1012.4
20260506110005 57 198 1.7 4.3 0.00 0.00 0.00 61 1012.3
20260506104504 57 192 2.6 5.2 0.00 0.00 0.00 60 1012.2
20260506103004 56 149 1.7 3.5 0.00 0.00 0.00 61 1012.0
20260506101502 57 142 2.6 4.3 0.00 0.00 0.00 60 1012.0
20260506100100 57 173 1.7 6.1 0.00 0.00 0.00 58 1012.0
20260506094600 57 173 2.6 5.2 0.00 0.00 0.00 58 1012.0
20260506093058 57 135 2.6 4.3 0.00 0.00 0.00 58 1011.8
20260506091558 57 132 2.6 5.2 0.00 0.00 0.00 58 1011.9
20260506090056 57 130 4.3 5.2 0.00 0.00 0.00 58 1011.8
20260506084556 57 109 3.5 5.2 0.00 0.00 0.00 59 1011.8
20260506083055 56 105 3.5 5.2 0.00 0.00 0.00 59 1011.8
20260506081555 56 156 3.5 6.1 0.00 0.00 0.00 61 1011.8
20260506073053 54 137 0.0 2.6 0.00 0.00 0.00 64 1011.7
20260506071550 56 123 0.0 1.7 0.00 0.00 0.00 59 1011.7
20260506061537 57 82 0.9 4.3 0.00 0.00 0.00 59 1011.0
20260506044537 55 58 1.7 2.6 0.00 0.00 0.00 66 1010.7
20260506043029 54 69 1.7 2.6 0.00 0.00 0.00 68 1010.7
20260506041527 53 81 2.6 3.5 0.00 0.00 0.00 70 1010.6
20260506040026 53 80 3.5 3.5 0.00 0.00 0.00 70 1010.5
20260506034526 54 78 3.5 3.5 0.00 0.00 0.00 69 1010.3
20260506033025 54 76 2.6 3.5 0.00 0.00 0.00 72 1010.2
20260506031525 55 78 2.6 3.5 0.00 0.00 0.00 71 1009.9
20260506030023 62 72 1.7 1.7 0.00 0.00 0.00 61 1009.8
20260506024531 67 105 0.9 1.7 0.00 0.00 0.00 51 1009.7
20260506023022 72 294 0.0 0.9 0.00 0.00 0.00 42 1009.6
20260506021521 72 291 0.0 0.9 0.00 0.00 0.00 38 1009.6
20260506020021 73 31 0.0 3.5 0.00 0.00 0.00 38 1009.5
20260506014520 73 292 0.9 2.6 0.00 0.00 0.00 36 1009.5
20260506013023 74 318 1.7 3.5 0.00 0.00 0.00 33 1009.4
20260506011522 74 284 2.6 4.3 0.00 0.00 0.00 33 1009.5
20260506010019 74 45 1.7 6.1 0.00 0.00 0.00 32 1009.5
20260506004518 74 49 1.7 5.2 0.00 0.00 0.00 31 1009.5
20260506003017 74 298 0.9 7.0 0.00 0.00 0.00 33 1009.4
20260506001516 74 306 2.6 7.8 0.00 0.00 0.00 32 1009.5
20260506000015 74 348 1.7 4.3 0.00 0.00 0.00 35 1009.5
20260505234532 74 40 3.5 11.3 0.00 0.00 0.00 30 1009.6
20260505233016 74 297 2.6 8.7 0.00 0.00 0.00 34 1009.6
20260505231514 74 319 2.6 9.6 0.00 0.00 0.00 36 1009.7
20260505230013 74 45 4.3 8.7 0.00 0.00 0.00 34 1009.9
20260505224509 74 319 3.5 7.0 0.00 0.00 0.00 39 1009.8
20260505223011 73 31 3.5 10.4 0.00 0.00 0.00 38 1009.9
20260505221508 74 43 1.7 6.1 0.00 0.00 0.00 40 1009.9
20260505220010 74 24 5.2 10.4 0.00 0.00 0.00 40 1010.0
20260505214508 73 277 3.5 10.4 0.00 0.00 0.00 43 1010.0
20260505213004 73 21 5.2 9.6 0.00 0.00 0.00 43 1010.1
20260505211503 73 313 5.2 10.4 0.00 0.00 0.00 39 1010.1
20260505210004 73 5 3.5 10.4 0.00 0.00 0.00 43 1010.2
20260505204502 73 283 3.5 10.4 0.00 0.00 0.00 40 1010.2
20260505203104 72 324 3.5 7.8 0.00 0.00 0.00 41 1010.2
20260505201608 72 350 4.3 9.6 0.00 0.00 0.00 42 1010.2
20260505200104 71 28 1.7 7.8 0.00 0.00 0.00 47 1010.2
20260505194603 71 34 1.7 7.0 0.00 0.00 0.00 47 1010.2
20260505193052 70 260 3.5 7.8 0.00 0.00 0.00 51 1010.2
20260505191553 69 261 0.9 7.0 0.00 0.00 0.00 48 1010.4
20260505190051 69 303 2.6 6.1 0.00 0.00 0.00 49 1010.4